Terug naar catalogus

LEMUR 2 ESPERANZA

ActiefWetenschapSSO
NORAD 63352·PAYLOAD·🇺🇸 United States

Gelanceerd Mar 26, 2025 vanaf Rocket Lab Launch Complex 1

Loading…

Volgende Passages (komende 24 uur)

TLE

VersSource: Space-Track

Epoch: Sep 14, 2026, 16:41 UTC

1 63352U 25061B   26257.69555615  .00003222  00000-0  18001-3 0  9999
2 63352  97.5752 232.6014 0017013 320.4899  39.5091 15.14123378 81136

Volg LEMUR 2 ESPERANZA in realtime met AllMySat

Download on the App Store